[[{"header":{"parameterUnit":"m.s-1","parameterCategory":1,"la1":30.2992,"la2":30.254,"lo1":-89.0895,"lo2":-89.0443,"dy":0.0025,"dx":0.0025,"nx":19,"ny":19,"refTime":"2026-03-23T21:00:00:Z","depth":0,"parameterNumber":2,"parameterNumberName":"U-component_of_WINDS"},"data":[0,0,0,-5.0866,-5.0866,-5.0879,-5.0879,-5.094,-5.0941,0,0,0,0,0,0,0,0,0,0,0,-5.0887,-5.0889,-5.0865,-5.0866,-5.0879,-5.0879,-5.094,-5.0941,0,0,0,0,0,0,0,0,0,0,0,-5.0887,-5.0888,-5.089,-5.0867,-5.0879,-5.0879,-5.0939,-5.0914,0,0,0,0,0,0,0,0,0,0,-5.0894,-5.0939,-5.0888,-5.089,-5.0867,-5.0879,-5.0879,-5.0912,-5.0916,-5.0953,0,-5.0991,0,-5.0967,-5.0948,-5.0948,0,0,0,-5.0847,-5.0936,-5.0917,-5.089,-5.0867,-5.0879,-5.0868,-5.0914,-5.0918,-5.0958,-5.0992,-5.0993,-5.0968,-5.0948,-5.0949,-5.1224,-5.1226,0,0,-5.0847,-5.0903,-5.0914,-5.0921,-5.092,-5.0868,-5.0869,-5.0915,-5.0957,-5.0992,-5.0993,-5.0969,-5.0949,-5.095,-5.1221,-5.1224,0,0,0,-5.0858,-5.0904,-5.0882,-5.0919,-5.0918,-5.0869,-5.087,-5.0954,-5.0942,-5.0994,-5.097,-5.0949,-5.0951,-5.1219,-5.1222,-5.1384,0,0,0,-5.0856,-5.091,-5.0883,-5.0918,-5.0918,-5.0936,-5.0909,-5.0939,-5.0943,-5.097,-5.0949,-5.0952,-5.1216,-5.1221,-5.1374,-5.145,0,0,0,-5.0878,-5.0912,-5.0923,-5.0921,-5.0928,-5.0934,-5.0924,-5.0939,-5.093,-5.0948,-5.0952,-5.1215,-5.122,-5.1365,-5.1435,-5.1538,0,0,0,-5.0917,-5.1066,-5.0926,-5.1084,-5.0928,-5.1034,-5.0923,-5.0999,-5.1035,-5.095,-5.1217,-5.1222,-5.1363,-5.1427,-5.153,-5.1634,-5.1683,0,0,-5.1136,-5.1094,-5.1182,-5.1058,-5.1203,-5.1028,-5.1197,-5.1176,-5.1126,-5.1195,-5.12,-5.1377,-5.1434,-5.1536,-5.1942,-5.1982,0,0,0,-5.1271,-5.1335,-5.1361,-5.1397,-5.1386,-5.1382,-5.1329,-5.1322,-5.1377,-5.1173,-5.1441,-5.1474,-5.1531,-5.1578,-5.1612,-5.1657,-5.1247,-5.1246,-5.1246,-5.166,-5.159,-5.1731,-5.1663,-5.1701,-5.1646,-5.167,-5.1651,-5.1568,-5.1634,-5.1652,-5.1907,-5.1964,-5.1989,-5.2038,-5.1703,-5.1704,-5.1704,-5.1705,-5.1973,-5.2052,-5.1942,-5.2039,-5.1965,-5.2046,-5.2001,-5.1941,-5.2007,-5.1886,-5.1933,-5.1806,-5.2035,-5.2073,-5.1716,-5.1714,-5.1713,-5.1712,-5.1711,-5.2218,-5.2243,-5.2233,-5.228,-5.2325,-5.2252,-5.2321,-5.2251,-5.2186,-5.2233,-5.2245,-5.2242,-5.223,-5.2244,-5.2245,-5.2246,-5.2247,-5.2248,-5.2248,-5.2475,-5.2458,-5.2524,-5.2527,-5.2542,-5.2554,-5.2505,-5.2518,-5.2515,-5.2459,-5.2459,-5.2371,-5.2071,-5.1996,-5.2262,-5.2259,-5.2257,-5.2256,-5.2255,-5.2814,-5.2727,-5.2829,-5.2846,-5.2844,-5.2894,-5.2806,-5.2841,-5.2842,-5.2879,-5.2782,-5.2572,-5.2524,-5.2497,-5.2434,-5.2797,-5.2797,-5.2797,-5.2797,-5.302,-5.299,-5.3079,-5.3109,-5.3131,-5.3063,-5.3183,-5.3148,-5.3097,-5.3094,-5.3033,-5.2945,-5.292,-5.2886,-5.285,-5.2791,-5.3236,-5.3237,-5.3237,-5.3224,-5.3194,-5.3307,-5.3257,-5.3252,-5.325,-5.3361,-5.3401,-5.3326,-5.3253,-5.309,-5.3072,-5.2929,-5.2886,-5.2806,-5.2752,-5.2641,0,0]},{"header":{"parameterUnit":"m.s-1","parameterCategory":1,"la1":30.2992,"la2":30.254,"lo1":-89.0895,"lo2":-89.0443,"dy":0.0025,"dx":0.0025,"nx":19,"ny":19,"refTime":"2026-03-23T21:00:00:Z","depth":0,"parameterNumber":3,"parameterNumberName":"V-component_of_WINDS"},"data":[0,0,0,1.8037,1.8036,1.8,1.8,1.794,1.794,0,0,0,0,0,0,0,0,0,0,0,1.8042,1.8042,1.8037,1.8036,1.8,1.8,1.794,1.794,0,0,0,0,0,0,0,0,0,0,0,1.8043,1.8042,1.8041,1.8036,1.8,1.8,1.794,1.7972,0,0,0,0,0,0,0,0,0,0,1.8009,1.8009,1.8042,1.8041,1.8036,1.8,1.8,1.7974,1.797,1.7952,0,1.7937,0,1.7938,1.7935,1.7935,0,0,0,1.8039,1.8012,1.8008,1.8041,1.8035,1.8,1.8017,1.7972,1.7967,1.7947,1.7936,1.7934,1.7937,1.7935,1.7934,1.7828,1.7827,0,0,1.8041,1.8032,1.8011,1.8005,1.8013,1.8018,1.8016,1.7969,1.7955,1.7936,1.7933,1.7936,1.7934,1.7934,1.7828,1.7827,0,0,0,1.8045,1.8033,1.803,1.8007,1.8002,1.8017,1.8014,1.7958,1.7958,1.7932,1.7935,1.7934,1.7933,1.7829,1.7828,1.7787,0,0,0,1.8046,1.8035,1.8031,1.8025,1.8003,1.798,1.8003,1.7961,1.7956,1.7935,1.7934,1.7932,1.783,1.7828,1.779,1.7768,0,0,0,1.8046,1.8035,1.8029,1.8024,1.8009,1.7981,1.7978,1.796,1.7957,1.7935,1.7932,1.783,1.7829,1.7792,1.7772,1.7737,0,0,0,1.8043,1.7991,1.8028,1.7971,1.8009,1.7957,1.7979,1.794,1.7916,1.7933,1.783,1.7828,1.7793,1.7775,1.774,1.7705,1.769,0,0,1.7972,1.7982,1.7949,1.7982,1.7921,1.7964,1.7897,1.7882,1.7887,1.7846,1.7844,1.7789,1.7772,1.7738,1.7614,1.7602,0,0,0,1.7924,1.79,1.7886,1.7865,1.7855,1.7844,1.7842,1.7837,1.7804,1.7865,1.7768,1.7759,1.7738,1.7722,1.7712,1.7695,1.7821,1.7821,1.7821,1.7806,1.7819,1.7766,1.7775,1.7754,1.7754,1.7737,1.773,1.7746,1.7724,1.771,1.7635,1.7615,1.7608,1.759,1.7695,1.7695,1.7695,1.7695,1.7702,1.7669,1.7697,1.7655,1.7669,1.7632,1.7631,1.7645,1.7611,1.7645,1.7628,1.7661,1.7594,1.7579,1.7692,1.7692,1.7693,1.7693,1.7693,1.7624,1.7611,1.7609,1.7582,1.7558,1.7569,1.7538,1.7551,1.7562,1.7546,1.7533,1.7533,1.7534,1.7539,1.7539,1.7539,1.7539,1.7538,1.7538,1.7544,1.7543,1.7516,1.7504,1.7494,1.7481,1.7483,1.7471,1.7462,1.7474,1.7474,1.7491,1.7587,1.761,1.7534,1.7535,1.7535,1.7536,1.7536,1.7428,1.7458,1.7416,1.7406,1.7394,1.737,1.7389,1.7366,1.7358,1.7342,1.7366,1.7435,1.7445,1.7453,1.7471,1.7364,1.7364,1.7364,1.7364,1.7361,1.737,1.7331,1.7314,1.7298,1.7313,1.7263,1.7265,1.727,1.7267,1.7285,1.7312,1.7319,1.7324,1.7335,1.7352,1.7218,1.7218,1.7217,1.7291,1.7299,1.7255,1.7264,1.7257,1.7249,1.7203,1.718,1.7193,1.7212,1.7263,1.727,1.7313,1.7327,1.7342,1.7359,1.7391,0,0]}]]